sat.trackr.live / text

‹ back to catalog

EUTELSAT QUANTUM

NORAD 49056 · 2021-069B

PAYLOAD ACTIVE UNKNOWN

§ Identity

Operator
Country
EUTE
Launch date
2021-07-30
Launch site
FRGUI
Launch vehicle
Mass (kg)
RCS (m²)

Purposes: comms

External: N2YO · Heavens-Above · Gunter

§ Orbital elements

Epoch: 2026-09-13T02:06:19.869408Z

Period
1,436.09 min
Inclination
0.0211°
Eccentricity
0.0002231
Mean motion
1.00272577 rev/d
Perigee alt
35,777.0 km
Apogee alt
35,795.8 km
Semi-major
42,164.5 km
B*
0.0000e+0
RAAN
72.0883°
Arg perigee
101.1203°
Mean anomaly
258.1590°
Rev number
1,880

§ Raw data

EUTELSAT QUANTUM1 49056U 21069B   26256.08772997  .00000114  00000+0  00000+0 0  99962 49056   0.0211  72.0883 0002231 101.1203 258.1590  1.00272577 18802

JSON: /api/v1/satellites/49056 · /tle

For live sub-satellite position, see the globe view (requires WebGL).

§ Visibility from observer

Set your observer location to see the next 7 days of passes ≥ 10°. The values pass through the URL so the page stays shareable.

No JS? Fill the form by hand. The geolocation button needs JavaScript.